Meteo Giornale » Osservazioni meteo Stati Uniti (USA) » Westerly State
ore: 17:53 - Osservazioni Meteo Westerly State
Lat. 41° 20' N Lon. 71° 47' W Alt. 24 metri s.l.m.
17 °C
Pioggia Foschia
Temp. 24 Ore
17 °C
21 °C
Est
13 Km/h
Dew point 16 °C
Umidità 93 %
Visibilità 5 Km
Il sole sorge alle ore 06:13
Il sole tramonta alle ore 19:20
| Data e Ora | Cielo e Fenomeni | T °C | DP °C | Um. % | Pres. hPa | Vis. km | Vento km/h | |
|---|---|---|---|---|---|---|---|---|
| Oggi h: 17:53 | Pioggia Foschia | 17 | 16 | 93 | 1017 | 5 | E 13 | |
| Oggi h: 17:46 | Pioggia Foschia | 17 | 17 | 100 | 1017 | 10 | E 13 | |
| Oggi h: 17:31 | Pioggia | 17 | 16 | 93 | 1017 | 11 | E 14.8 | |
| Oggi h: 17:22 | Pioggia Foschia | 17 | 16 | 93 | 1017 | 3 | E/NE 13 | |
| Oggi h: 17:17 | Pioggia Foschia | 17 | 16 | 93 | 1017 | 5 | E 16.7 | |
| Oggi h: 16:53 | Pioggia Foschia | 17 | 16 | 93 | 1017 | 5 | E/NE 14.8 | |
| Oggi h: 15:53 | Coperto | 18 | 15 | 82 | 1016 | 10 | NE 9.3 | |
| Oggi h: 14:53 | Coperto | 19 | 16 | 82 | 1016 | 10 | E 14.8 | |
| Oggi h: 13:53 | Coperto | 19 | 17 | 88 | 1016 | 10 | E 11.1 | |
| Oggi h: 12:53 | Coperto | 17 | 16 | 93 | 1016 | 10 | E 13 | |
| Oggi h: 12:33 | Coperto | 17 | 16 | 93 | 1017 | 10 | E 13 | |
| Oggi h: 11:53 | Pioggia Foschia | 18 | 17 | 93 | 1017 | 8 | E/SE 27.8 | |
| Oggi h: 11:50 | Pioggia | 18 | 18 | 100 | 1017 | 11 | E/SE 29.6 | |
| Oggi h: 11:41 | Coperto | 19 | 18 | 93 | 1017 | 10 | E 27.8 | |
| Oggi h: 11:27 | Pioggia | 20 | 19 | 93 | 1017 | 10 | E 9.3 | |
| Oggi h: 11:08 | Pioggia | 20 | 19 | 93 | 1017 | 11 | E 9.3 | |
| Oggi h: 10:57 | Pioggia Foschia | 20 | 19 | 93 | 1017 | 5 | N 7.4 | |
| Oggi h: 10:53 | Pioggia Foschia | 20 | 19 | 93 | 1017 | 3 | E 7.4 | |
| Oggi h: 10:40 | Pioggia Foschia | 20 | 19 | 93 | 1017 | 5 | N 5.5 | |
| Oggi h: 10:28 | Pioggia Foschia | 20 | 19 | 93 | 1017 | 5 | N 5.5 | |
| Oggi h: 10:16 | Pioggia Foschia | 20 | 19 | 93 | 1017 | 5 | N 5.5 | |
| Oggi h: 10:09 | Pioggia Foschia | 20 | 19 | 93 | 1017 | 3 | E 7.4 | |
| Oggi h: 09:59 | Pioggia Foschia | 20 | 19 | 93 | 1017 | 5 | E/NE 7.4 | |
| Oggi h: 09:53 | Pioggia Foschia | 20 | 19 | 93 | 1017 | 5 | N 5.5 | |
| Oggi h: 09:19 | Pioggia Foschia | 21 | 19 | 88 | 1017 | 5 | E 7.4 | |
| Oggi h: 09:05 | Pioggia Foschia | 21 | 19 | 88 | 1017 | 2 | N/NO 7.4 | |
| Oggi h: 08:53 | Coperto | 21 | 19 | 88 | 1016 | 10 | S/SE 7.4 | |
| Oggi h: 07:53 | Coperto | 21 | 20 | 94 | 1017 | 10 | N 5.5 | |
| Oggi h: 07:47 | Coperto | 21 | 20 | 94 | 1017 | 14 | S/SE 9.3 | |
| Oggi h: 07:30 | Pioggia | 21 | 19 | 88 | 1017 | 10 | N 0 | |
| Oggi h: 07:03 | Coperto | 19 | 18 | 93 | 1017 | 10 | N 0 | |
| Oggi h: 06:53 | Coperto | 19 | 18 | 93 | 1017 | 10 | N 0 | |
| Oggi h: 05:53 | Coperto | 19 | 18 | 93 | 1016 | 10 | N 0 | |
| Oggi h: 04:53 | Coperto | 19 | 18 | 93 | 1017 | 10 | N 0 | |
| Oggi h: 04:32 | Coperto | 19 | 18 | 93 | 1017 | 10 | N 0 | |
| Oggi h: 04:03 | Coperto | 19 | 18 | 93 | 1017 | 10 | N 0 | |
| Oggi h: 03:53 | Coperto | 19 | 18 | 93 | 1017 | 10 | N 0 | |
| Oggi h: 02:53 | Coperto | 19 | 18 | 93 | 1017 | 10 | N 0 | |
| Oggi h: 01:53 | Coperto | 19 | 18 | 93 | 1018 | 10 | N 0 | |
| Oggi h: 00:53 | Coperto | 21 | 18 | 82 | 1018 | 10 | N 0 | |
| Ieri h: 23:53 | Coperto | 20 | 18 | 88 | 1018 | 10 | N 0 | |
| Ieri h: 22:53 | Coperto | 21 | 17 | 77 | 1018 | 10 | N 5.5 | |
| Ieri h: 21:53 | Coperto | 21 | 17 | 77 | 1019 | 10 | N 5.5 | |
| Ieri h: 20:53 | Sereno | 21 | 17 | 77 | 1019 | 10 | N 0 | |
| Ieri h: 19:53 | Coperto | 21 | 16 | 73 | 1019 | 10 | S 7.4 | |
| Ieri h: 18:53 | Poco Nuvoloso | 21 | 16 | 73 | 1019 | 10 | S 9.3 | |



